Regional Weather Roundup
Issued by NWS Upton, NY

Current Version | Previous Version | Graphics & Text | Print | Product List | Glossary Off
Versions: 1 2 3 4 5 6 7 8 9 10 11 12 13 14 15 16 17 18 19 20 21 22 23 24 25 26 27 28 29 30 31 32 33 34 35 36 37 38 39 40 41 42 43 44 45 46 47 48 49 50

000
ASUS41 KOKX 300908
RWROKX

REGIONAL WEATHER ROUNDUP
NATIONAL WEATHER SERVICE NEW YORK NY
500 AM EDT THU MAR 30 2017

NOTE: "FAIR" INDICATES FEW OR NO CLOUDS BELOW 12,000 FEET WITH NO
SIGNIFICANT WEATHER AND/OR OBSTRUCTIONS TO VISIBILITY.

NYZ071-072-176-178-NJZ106-104-301000-
NEW YORK CITY METRO AREA

CITY           SKY/WX    TMP DP  RH WIND       PRES   REMARKS
Central Park   CLEAR     39  22  50 NW3       30.25R
Wall St Helipt SUNNY     39  23  52 W5        30.25R
LaGuardia APRT CLEAR     42  23  46 N7        30.23R
Kennedy INTL   PTCLDY    38  23  55 N6        30.24R WCI  33
Breezy Point     N/A     39 N/A N/A N7          N/A  WCI  34
Newark/Liberty CLEAR     40  22  48 NW6       30.24R
Teterboro      CLEAR     36  24  62 CALM      30.23R
$$

NYZ177-179-078>081-301000-
LONG ISLAND NEW YORK

CITY           SKY/WX    TMP DP  RH WIND       PRES   REMARKS
Jones Beach      N/A     37 N/A N/A NW7         N/A  WCI  32
Matinecock PT  NOT AVBL
Farmingdale    CLEAR     37  23  56 N6        30.22R WCI  32
MacArthur/ISP  CLEAR     34  25  69 NW6       30.21R WCI  29
Shirley        CLEAR     32  24  72 NW5       30.22R WCI  27
Westhampton    CLEAR     25  19  78 N6        30.22R WCI  18
East Hampton     N/A     34  23  64 NW3       30.20R
Montauk          N/A     38  26  62 NW9       30.20R WCI  31
$$

NYZ052-065-067-301000-
HUDSON VALLEY

CITY           SKY/WX    TMP DP  RH WIND       PRES   REMARKS
White Plains   CLEAR     32  23  69 CALM      30.21R
Newburgh       CLEAR     30  25  80 W6        30.23R WCI  24
Montgomery     CLOUDY    30  24  78 CALM      30.22R
Poughkeepsie   PTCLDY    26  22  84 CALM      30.23R
Albany         PTCLDY    30  20  66 NW6       30.24S WCI  24
$$

NJZ001-105-106-008-010-013-015-019>022-104-301000-
NEW JERSEY

CITY           SKY/WX    TMP DP  RH WIND       PRES   REMARKS
Newark/Liberty CLEAR     40  22  48 NW6       30.24R
Teterboro      CLEAR     36  24  62 CALM      30.23R
Caldwell       CLEAR     31  25  78 CALM      30.25R
Somerville     CLEAR     30  26  85 CALM      30.22S
Linden           N/A     36  24  62 CALM      30.25R
Sussex         CLEAR     28  25  88 CALM      30.23S
Andover          N/A     28  25  88 CALM      30.23S
Trenton        CLEAR     35  25  66 N6        30.22S WCI  30
Millville      CLEAR     32  27  81 CALM      30.23R
Atlantic City  CLEAR     34  26  72 W3        30.23R
Wrightstown    CLEAR     32  24  70 CALM      30.19S
Toms River     CLEAR     28  25  88 CALM      30.22F
Belmar         CLEAR     37  22  54 N7        30.23S WCI  32
$$

PAZ047>061-062-071-301000-
EASTERN PENNSYLVANIA

CITY           SKY/WX    TMP DP  RH WIND       PRES   REMARKS
Philadelphia   MOCLDY    40  24  53 NE8       30.23R WCI  34
Allentown      CLOUDY    34  24  67 NE5       30.22F WCI  30
Scranton       CLOUDY    30  24  78 E3        30.24R
$$

CTZ002-004>006-009-010-012-RIZ004-006-007-MAZ004-011-015-301000-
SOUTHERN NEW ENGLAND
 IN CT

CITY           SKY/WX    TMP DP  RH WIND       PRES   REMARKS
Bradley INTL   PTCLDY    31  21  66 NW6       30.20R WCI  25
Hartford       CLEAR     35  21  56 NW6       30.20R WCI  30
Danbury        CLEAR     27  23  85 CALM      30.22R
Wtrbury/Oxford CLEAR     30  18  59 N7        30.19S WCI  23
Bridgeport     CLEAR     36  22  56 NW5       30.21R WCI  32
Meriden        CLEAR     31  23  72 NW3       30.20R
New Haven      CLEAR     34  21  59 N5        30.21R WCI  30
Chester        NOT AVBL
Groton         CLEAR     34  22  61 NW8       30.19R WCI  27
Wilimantic     MOCLDY    30  24  78 CALM      30.20R

 IN RI

CITY           SKY/WX    TMP DP  RH WIND       PRES   REMARKS
Providence     CLEAR     35  21  56 NW7       30.17R WCI  29
Block Island   CLEAR     36  25  64 N10       30.17R WCI  28
Westerly       PTCLDY    35  23  61 NW6       30.18R WCI  30
 IN MA

CITY           SKY/WX    TMP DP  RH WIND       PRES   REMARKS
Boston         PTCLDY    35  22  58 NW13      30.16R WCI  26
Worcester      PTCLDY    30  20  66 NW6       30.13R WCI  24
Westfield      CLEAR     28  23  81 CALM      30.19R
Provincetown   CLEAR     38  26  62 N21       30.13R WCI  28
Nantucket      CLEAR     37  28  70 N13       30.11R WCI  29
$$

ANZ330-335-338-340-345-350-353-355-301000-
COASTAL MARINE OBSERVATIONS


STATION/POSITION TIME  SKY/WX   TEMP    WIND        PRES    VSBY  WAVE
                                AIR SEA DIR/SP/G                  HT/PER
                 (UTC)          (F)     (DEG/KT/KT) (MB)    (MI)  (FT/S)
NY HARB ENTRANCE 0750            42 42  360/ 12/ 14 1023.2          2/10
20 S FIRE ISLAND 0850            40 41  350/ 12/ 16 1022.7          4/ 8
GREAT SOUTH BAY  NOT AVBL
23 SSW MONTAUK P 0750            40 42              1021.6          3/ 9
15 E BARNEGAT LI 0830               44                N/A           5/ 5
HUDSON CANYON    0750            42 43   20/ 19/ 23 1021.0          5/ 5
KINGS POINT      0836            39 40              1023.2
EXECUTION ROCKS  NOT AVBL
CENTRAL LI SOUND 0830            39     310/ 10/ 14   N/A           1
EASTERN LI SOUND NOT AVBL
ROBBINS REEF     0836            40     340/  5/  6 1023.8
$$


>>>>>>>>>>>>>>>>>>>>>>>>>>>> KEY <<<<<<<<<<<<<<<<<<<<<<<<<<<
>                                                          <
>     SKY/WX - Sky Condition/Present Weather               <
>     TMP    - Temperature in Fahrenheit                   <
>     DP     - Dew Point in Fahrenheit                     <
>     RH     - Relative Humidity in Percent                <
>     WIND   - Direction (from) and Speed in MPH           <
>     PRES   - Mean Sea Level Pressure (inches of Hg)      <
>     WCI    - Wind Chill Index                            <
>     VSB    - VISIBILITY IN MILES                         <
>     HX     - HEAT INDEX                                  <
>     TC     - TEMPERATURE IN CELSIUS                      <
>     VRB    - VARIABLE WIND DIRECTION                     <
>                                                          <
>>>>>>>>>>>>>>>>>>>>>>>>>>>> KEY <<<<<<<<<<<<<<<<<<<<<<<<<<<



USA.gov is the U.S. government's official web portal to all federal, state and local government web resources and services.